Weather History for Worland, WY

Change the Weather History Date:

Saturday, July 6, 2013

  Actual Average Record
Temperature  
Mean Temperature 73 °F 71 °F  
Max Temperature 91 °F 87 °F 104 °F (1973)
Min Temperature 55 °F 54 °F 44 °F (1993)
Degree Days  
Heating Degree Days 0 1  
Month to date heating degree days 0 6  
Since 1 June heating degree days 45 99  
Since 1 July heating degree days 0 6  
Cooling Degree Days 8 6  
Month to date cooling degree days 66 35  
Year to date cooling degree days 216 131  
Since 1 June cooling degree days 199 119  
Growing Degree Days 22 (Base 50)    
Moisture  
Dew Point 50 °F    
Average Humidity 50    
Maximum Humidity 83    
Minimum Humidity 16    
Precipitation  
Precipitation T in 0.03 in 0.50 in (1994)
Month to date precipitation 0.02 0.13  
Year to date precipitation 2.80 4.44  
Sea Level Pressure  
Sea Level Pressure 29.81 in    
Wind  
Wind Speed 4 mph (NNW)    
Max Wind Speed 23 mph    
Max Gust Speed 28 mph    
Visibility 10 miles    
Events Rain , Thunderstorm    
T = Trace of Precipitation, MM = Missing Value Source: NWS Daily Summary

Daily Weather History Graph

Daily Weather History Graph

Search for Another Location

Airport:

Trip Planner

Search our weather history database for the weather conditions in past years. The results will help you decide how hot, cold, wet, or windy it might be!

Date:

Astronomy

Jul. 06, 2013 Rise Set
Actual Time 5:36 AM MDT 8:56 PM MDT
Civil Twilight 5:00 AM MDT 9:32 PM MDT
Nautical Twilight 4:13 AM MDT 10:18 PM MDT
Astronomical Twilight 3:15 AM MDT 11:16 PM MDT
Moon 4:26 AM MDT (7/6) 7:38 PM MDT (7/6)
Length of Visible Light 16h 31m
Length of Day
15h 20m
Waning Crescent, 2% of the Moon is Illuminated
Jul 6
Waning Crescent
Jul 8
New
Jul 15
First Quarter
Jul 22
Full
Jul 29
Last Quarter

Hourly Weather History & Observations

Time (MDT) Temp. Dew Point Humidity Pressure Visibility Wind Dir Wind Speed Gust Speed Precip Events Conditions
12:53 AM 66.9 °F 53.1 °F 61% 29.73 in 10.0 mi North 5.8 mph - N/A   Clear
1:53 AM 63.0 °F 52.0 °F 67% 29.74 in 10.0 mi South 5.8 mph - N/A   Clear
2:53 AM 60.1 °F 52.0 °F 75% 29.74 in 10.0 mi Calm Calm - N/A   Clear
3:53 AM 57.0 °F 51.1 °F 81% 29.75 in 10.0 mi South 3.5 mph - N/A   Clear
4:53 AM 55.0 °F 50.0 °F 83% 29.81 in 10.0 mi Calm Calm - N/A   Clear
5:53 AM 55.0 °F 50.0 °F 83% 29.81 in 10.0 mi Calm Calm - N/A   Clear
6:53 AM 62.1 °F 54.0 °F 75% 29.81 in 10.0 mi Calm Calm - N/A   Clear
7:53 AM 66.0 °F 54.0 °F 65% 29.81 in 10.0 mi South 3.5 mph - N/A   Clear
8:53 AM 70.0 °F 54.0 °F 57% 29.82 in 10.0 mi WSW 5.8 mph - N/A   Clear
9:53 AM 73.9 °F 55.9 °F 53% 29.83 in 10.0 mi Variable 4.6 mph - N/A   Clear
10:53 AM 79.0 °F 53.1 °F 40% 29.82 in 10.0 mi North 6.9 mph - N/A   Clear
11:53 AM 81.0 °F 48.9 °F 33% 29.81 in 10.0 mi North 5.8 mph - N/A   Clear
12:53 PM 84.0 °F 51.1 °F 32% 29.80 in 10.0 mi NNW 5.8 mph - N/A   Clear
1:53 PM 87.1 °F 44.1 °F 22% 29.78 in 10.0 mi NNE 6.9 mph - N/A   Clear
2:53 PM 88.0 °F 42.1 °F 20% 29.77 in 10.0 mi North 8.1 mph - N/A   Clear
3:53 PM 90.0 °F 37.0 °F 15% 29.75 in 10.0 mi North 6.9 mph - N/A   Clear
4:53 PM 82.9 °F 42.1 °F 24% 29.77 in 10.0 mi Variable 5.8 mph 17.3 mph N/A   Partly Cloudy
5:13 PM 82.4 °F 44.6 °F 26% 29.91 in 10.0 mi SW 9.2 mph - N/A Thunderstorm Mostly Cloudy
5:31 PM 78.8 °F 48.2 °F 34% 29.92 in 10.0 mi NW 11.5 mph 27.6 mph N/A   Overcast
5:38 PM 78.8 °F 50.0 °F 36% 29.92 in 10.0 mi West 12.7 mph 23.0 mph 0.00 in Rain Light Rain
5:53 PM 77.0 °F 52.0 °F 42% 29.82 in 10.0 mi NNW 6.9 mph - 0.00 in   Scattered Clouds
6:53 PM 77.0 °F 51.1 °F 40% 29.81 in 10.0 mi NW 5.8 mph - N/A   Clear
7:53 PM 73.9 °F 52.0 °F 46% 29.80 in 10.0 mi ENE 8.1 mph - N/A   Clear
8:53 PM 71.1 °F 54.0 °F 55% 29.81 in 10.0 mi Calm Calm - N/A   Clear
9:53 PM 70.0 °F 54.0 °F 57% 29.84 in 10.0 mi North - - N/A   Clear
10:53 PM 69.1 °F 54.0 °F 58% 29.87 in 10.0 mi Calm Calm - N/A   Partly Cloudy
11:53 PM 72.0 °F 50.0 °F 46% 29.88 in 10.0 mi Calm Calm - 0.00 in   Overcast